Weather History for KGUC - April, 2014

Change the Weather History Date:

Tuesday, April 1, 2014

  Actual Average Record
Temperature  
Mean Temperature 40 °F -  
Max Temperature 48 °F 47 °F 66 °F (2012)
Min Temperature 32 °F 20 °F 10 °F (2008)
Degree Days  
Heating Degree Days 25    
Moisture  
Dew Point 17 °F    
Average Humidity 44    
Maximum Humidity 70    
Minimum Humidity 22    
Precipitation  
Precipitation 0.00 in - - ()
Sea Level Pressure  
Sea Level Pressure 29.82 in    
Wind  
Wind Speed 6 mph (North)    
Max Wind Speed 21 mph    
Max Gust Speed 26 mph    
Visibility 10 miles    
Events      
Averages and records for this station are not official NWS values.
T = Trace of Precipitation, MM = Missing Value Source: NWS Daily Summary

Daily Weather History Graph

Daily Weather History Graph

Search for Another Location

Airport or City:

Trip Planner

Search our weather history database for the weather conditions in past years. The results will help you decide how hot, cold, wet, or windy it might be!

Date:

Astronomy

Apr. 01, 2014 Rise Set
Actual Time 6:52 AM MDT 7:31 PM MDT
Civil Twilight 6:25 AM MDT 7:57 PM MDT
Nautical Twilight 5:54 AM MDT 8:29 PM MDT
Astronomical Twilight 5:21 AM MDT 9:02 PM MDT
Moon 7:58 AM MDT (4/1) 9:54 PM MDT (4/1)
Length of Visible Light 13h 32m
Length of Day
12h 38m
Waxing Crescent, 5% of the Moon is Illuminated
Apr 1
Waxing Crescent
Apr 7
First Quarter
Apr 15
Full
Apr 22
Last Quarter
Apr 29
New

Hourly Weather History & Observations

Time (MDT) Temp. Windchill Dew Point Humidity Pressure Visibility Wind Dir Wind Speed Gust Speed Precip Events Conditions
12:15 AM 35.6 °F 27.5 °F 14.0 °F 41% 29.93 in 10.0 mi NNE 11.5 mph - N/A   Partly Cloudy
12:35 AM 35.6 °F 29.9 °F 14.0 °F 41% 29.93 in 10.0 mi North 6.9 mph - N/A   Partly Cloudy
12:55 AM 35.6 °F 29.9 °F 12.2 °F 38% 29.92 in 10.0 mi NNE 6.9 mph - N/A   Clear
1:15 AM 33.8 °F 28.6 °F 15.8 °F 48% 29.92 in 10.0 mi North 5.8 mph - N/A   Scattered Clouds
1:35 AM 33.8 °F 27.7 °F 15.8 °F 48% 29.91 in 10.0 mi North 6.9 mph - N/A   Mostly Cloudy
1:55 AM 33.8 °F 27.0 °F 15.8 °F 48% 29.91 in 10.0 mi North 8.1 mph - N/A   Mostly Cloudy
2:15 AM 35.6 °F 31.7 °F 15.8 °F 44% 29.91 in 10.0 mi NNE 4.6 mph - N/A   Mostly Cloudy
2:35 AM 35.6 °F 31.7 °F 15.8 °F 44% 29.90 in 10.0 mi ENE 4.6 mph - N/A   Mostly Cloudy
2:55 AM 33.8 °F 27.7 °F 17.6 °F 52% 29.89 in 10.0 mi SE 6.9 mph - N/A   Mostly Cloudy
3:15 AM 33.8 °F 30.8 °F 17.6 °F 52% 29.89 in 10.0 mi WSW 3.5 mph - N/A   Overcast
3:35 AM 33.8 °F - 19.4 °F 56% 29.89 in 10.0 mi Calm Calm - N/A   Overcast
3:55 AM 33.8 °F 29.6 °F 17.6 °F 52% 29.89 in 10.0 mi West 4.6 mph - N/A   Overcast
4:15 AM 33.8 °F - 17.6 °F 52% 29.88 in 10.0 mi Calm Calm - N/A   Overcast
4:35 AM 32.0 °F - 19.4 °F 60% 29.87 in 10.0 mi Calm Calm - N/A   Overcast
4:55 AM 32.0 °F - 19.4 °F 60% 29.87 in 10.0 mi Calm Calm - N/A   Overcast
5:15 AM 33.8 °F - 19.4 °F 56% 29.87 in 10.0 mi Calm Calm - N/A   Overcast
5:35 AM 32.0 °F - 19.4 °F 60% 29.87 in 10.0 mi Calm Calm - N/A   Overcast
5:55 AM 33.8 °F - 19.4 °F 56% 29.87 in 10.0 mi Calm Calm - N/A   Overcast
6:15 AM 33.8 °F 28.6 °F 19.4 °F 56% 29.86 in 10.0 mi NE 5.8 mph - N/A   Overcast
6:35 AM 33.8 °F 27.7 °F 19.4 °F 56% 29.86 in 10.0 mi ENE 6.9 mph - N/A   Overcast
6:55 AM 33.8 °F 30.8 °F 23.0 °F 65% 29.86 in 10.0 mi North 3.5 mph - N/A   Overcast
7:15 AM 35.6 °F 30.7 °F 23.0 °F 60% 29.86 in 10.0 mi NE 5.8 mph - N/A   Overcast
7:35 AM 35.6 °F 26.6 °F 21.2 °F 56% 29.86 in 10.0 mi ENE 13.8 mph - N/A   Overcast
7:55 AM 33.8 °F 24.8 °F 24.8 °F 70% 29.86 in 10.0 mi ENE 12.7 mph - N/A   Mostly Cloudy
8:15 AM 33.8 °F 28.6 °F 24.8 °F 70% 29.86 in 10.0 mi East 5.8 mph - N/A   Scattered Clouds
8:35 AM 35.6 °F 32.8 °F 24.8 °F 65% 29.86 in 10.0 mi East 3.5 mph - N/A   Scattered Clouds
8:55 AM 35.6 °F 32.8 °F 23.0 °F 60% 29.86 in 10.0 mi NNW 3.5 mph - N/A   Mostly Cloudy
9:15 AM 35.6 °F 32.8 °F 23.0 °F 60% 29.86 in 10.0 mi North 3.5 mph - N/A   Overcast
9:35 AM 35.6 °F 30.7 °F 24.8 °F 65% 29.86 in 10.0 mi North 5.8 mph - N/A   Overcast
9:55 AM 35.6 °F 30.7 °F 24.8 °F 65% 29.85 in 10.0 mi ENE 5.8 mph - N/A   Overcast
10:15 AM 37.4 °F - 19.4 °F 48% 29.85 in 10.0 mi Calm Calm - N/A   Overcast
10:35 AM 39.2 °F - 17.6 °F 42% 29.84 in 10.0 mi Calm Calm - N/A   Overcast
10:55 AM 39.2 °F 35.0 °F 17.6 °F 42% 29.84 in 10.0 mi SSE 5.8 mph - N/A   Overcast
11:15 AM 39.2 °F - 17.6 °F 42% 29.83 in 10.0 mi Calm Calm - N/A   Overcast
11:35 AM 41.0 °F 35.2 °F 15.8 °F 36% 29.82 in 10.0 mi South 9.2 mph - N/A   Overcast
11:55 AM 42.8 °F 37.5 °F 17.6 °F 36% 29.82 in 10.0 mi South 9.2 mph - N/A   Overcast
12:15 PM 42.8 °F 38.0 °F 12.2 °F 29% 29.82 in 10.0 mi SSW 8.1 mph - N/A   Mostly Cloudy
12:35 PM 44.6 °F 40.2 °F 15.8 °F 31% 29.81 in 10.0 mi SW 8.1 mph 17.3 mph N/A   Mostly Cloudy
12:55 PM 44.6 °F 38.8 °F 12.2 °F 27% 29.80 in 10.0 mi SSW 11.5 mph 17.3 mph N/A   Scattered Clouds
1:15 PM 46.4 °F 39.8 °F 12.2 °F 25% 29.79 in 10.0 mi WSW 16.1 mph 23.0 mph N/A   Partly Cloudy
1:35 PM 46.4 °F 39.2 °F 10.4 °F 23% 29.79 in 10.0 mi West 18.4 mph 24.2 mph N/A   Partly Cloudy
1:55 PM 46.4 °F 40.4 °F 10.4 °F 23% 29.78 in 10.0 mi West 13.8 mph 23.0 mph N/A   Partly Cloudy
2:15 PM 46.4 °F 40.7 °F 10.4 °F 23% 29.77 in 10.0 mi West 12.7 mph 25.3 mph N/A   Clear
2:35 PM 46.4 °F 38.7 °F 10.4 °F 23% 29.77 in 10.0 mi West 20.7 mph 26.5 mph N/A   Partly Cloudy
2:55 PM 48.2 °F - 10.4 °F 22% 29.76 in 10.0 mi West 17.3 mph 24.2 mph N/A   Scattered Clouds
3:15 PM 48.2 °F - 10.4 °F 22% 29.76 in 10.0 mi West 13.8 mph 17.3 mph N/A   Scattered Clouds
3:35 PM 48.2 °F - 10.4 °F 22% 29.75 in 10.0 mi WSW 12.7 mph 20.7 mph N/A   Clear
3:55 PM 48.2 °F - 10.4 °F 22% 29.75 in 10.0 mi WSW 13.8 mph 18.4 mph N/A   Clear
4:15 PM 48.2 °F - 10.4 °F 22% 29.75 in 10.0 mi West 9.2 mph - N/A   Clear
4:35 PM 48.2 °F - 10.4 °F 22% 29.75 in 10.0 mi SW 8.1 mph 17.3 mph N/A   Clear
4:55 PM 46.4 °F 41.5 °F 10.4 °F 23% 29.74 in 10.0 mi WSW 10.4 mph 17.3 mph N/A   Clear
5:15 PM 46.4 °F 42.9 °F 10.4 °F 23% 29.75 in 10.0 mi SW 6.9 mph - N/A   Clear
5:35 PM 46.4 °F 45.2 °F 10.4 °F 23% 29.75 in 10.0 mi SW 3.5 mph - N/A   Clear
5:55 PM 46.4 °F - 10.4 °F 23% 29.74 in 10.0 mi Calm Calm - N/A   Clear
6:15 PM 46.4 °F 45.2 °F 10.4 °F 23% 29.75 in 10.0 mi WNW 3.5 mph - N/A   Clear
6:35 PM 44.6 °F 42.2 °F 19.4 °F 37% 29.75 in 10.0 mi ENE 4.6 mph - N/A   Clear
6:55 PM 42.8 °F 39.3 °F 19.4 °F 39% 29.75 in 10.0 mi ENE 5.8 mph - N/A   Clear
7:15 PM 42.8 °F 38.0 °F 19.4 °F 39% 29.75 in 10.0 mi NE 8.1 mph - N/A   Clear
7:35 PM 41.0 °F - 19.4 °F 42% 29.75 in 10.0 mi Calm Calm - N/A   Clear
7:55 PM 42.8 °F 37.0 °F 17.6 °F 36% 29.75 in 10.0 mi ENE 10.4 mph - N/A   Partly Cloudy
8:15 PM 41.0 °F - 19.4 °F 42% 29.77 in 10.0 mi Calm Calm - N/A   Partly Cloudy
8:35 PM 41.0 °F 35.2 °F 19.4 °F 42% 29.76 in 10.0 mi ENE 9.2 mph - N/A   Scattered Clouds
8:55 PM 41.0 °F 37.1 °F 17.6 °F 39% 29.77 in 10.0 mi East 5.8 mph - N/A   Scattered Clouds
9:15 PM 41.0 °F 38.0 °F 17.6 °F 39% 29.78 in 10.0 mi East 4.6 mph - N/A   Partly Cloudy
9:35 PM 39.2 °F - 17.6 °F 42% 29.78 in 10.0 mi Calm Calm - N/A   Clear
9:55 PM 37.4 °F - 19.4 °F 48% 29.78 in 10.0 mi Calm Calm - N/A   Clear
10:15 PM 37.4 °F - 19.4 °F 48% 29.78 in 10.0 mi Calm Calm - N/A   Clear
10:35 PM 35.6 °F - 21.2 °F 56% 29.77 in 10.0 mi Calm Calm - N/A   Clear
10:55 PM 35.6 °F - 21.2 °F 56% 29.77 in 10.0 mi Calm Calm - N/A   Clear
11:15 PM 35.6 °F - 21.2 °F 56% 29.77 in 10.0 mi Calm Calm - N/A   Clear
11:35 PM 33.8 °F - 21.2 °F 60% 29.77 in 10.0 mi Calm Calm - N/A   Partly Cloudy
11:55 PM 32.0 °F 28.7 °F 21.2 °F 64% 29.77 in 10.0 mi NNW 3.5 mph - N/A   Scattered Clouds